Regional Weather Roundup
Issued by NWS

Home | Current Version | Previous Version | Text Only | Print | Product List | Glossary Off
Versions: 1 2 3 4 5 6 7 8 9 10 11 12 13 14 15 16 17 18 19 20 21 22 23 24 25 26 27 28 29 30 31 32 33 34 35 36 37 38 39 40 41 42 43 44 45 46 47 48 49 50

813
ASUS43 KBIS 250310
RWRND

NORTH DAKOTA REGIONAL WEATHER ROUNDUP
NATIONAL WEATHER SERVICE BISMARCK ND
1000 PM CDT SUN JUL 24 2016

NOTE: "FAIR" INDICATES FEW OR NO CLOUDS BELOW 12,000 FEET WITH NO
SIGNIFICANT WEATHER AND/OR OBSTRUCTIONS TO VISIBILITY.


NDZ001>003-009>011-017-250400-
NORTHWEST NORTH DAKOTA

CITY           SKY/WX    TMP DP  RH WIND       PRES   REMARKS
WILLISTON      CLEAR     73  58  59 CALM      29.98R
MINOT          CLEAR     70  61  73 CALM      29.99R
MINOT AFB      CLEAR     69  58  69 SE2       29.98R
$$

NDZ018>021-031>035-040>046-250400-
SOUTHWEST NORTH DAKOTA

CITY           SKY/WX    TMP DP  RH WIND       PRES   REMARKS
BISMARCK       CLEAR     67  62  84 SE5       30.03R
DICKINSON      CLEAR     68  53  58 SE10      30.02R
GARRISON         N/A     71  59  65 CALM      30.00S
HETTINGER ARPT CLEAR     74  51  44 E12       30.06S
$$

NDZ004>008-012>016-024-026-027-054-250400-
NORTHEAST NORTH DAKOTA

CITY           SKY/WX    TMP DP  RH WIND       PRES   REMARKS
GRAND FORKS    CLEAR     67  61  81 W6        29.94R
GRND FRKS AFB  CLEAR     68  61  78 W6        29.95R
DEVILS LAKE    CLEAR     66  59  78 W8        29.99R
$$

NDZ022-023-025-028>030-036>039-047>053-250400-
SOUTHEAST NORTH DAKOTA

CITY           SKY/WX    TMP DP  RH WIND       PRES   REMARKS
FARGO          CLEAR     70  61  73 W7        29.96R
JAMESTOWN      CLEAR     69  59  70 W3        30.01R
$$





USA.gov is the U.S. government's official web portal to all federal, state and local government web resources and services.